Torna al catalogo

USA 423

AttivoMilitareVLEO
NORAD 61646·PAYLOAD·🇺🇸 United States

Lanciato Oct 24, 2024 da Vandenberg Space Force Base

Loading…

Prossimi Passaggi (prossime 24 ore)

TLE

ObsoletoSource: Mike McCants

Epoca: Aug 11, 2026, 19:35 UTC

1 61646U 24192C   26223.81602902 0.00000000  00000-0  00000-0 0    07
2 61646  70.0167 112.3707 0004000 231.1279 128.8720 14.96713499    07

Traccia USA 423 in tempo reale con AllMySat

Download on the App Store